Temperature
15 14 14 14 14 14 14 14 13 13 14 16 16 16 16 16 16 16 16 16 16 16 16 16 16 16 16 16 16 16 16 16 16 16 16 16 16 16
15 14 14 14 14 14 14 14 14 13 13 14 15 15 15 15 16 16 16 16 16 16 16 16 15 15 16 15 15 15 15 15 15 15 15 15 15 16
14 14 14 14 14 14 14 14 14 14 14 14 14 14 14 14 15 15 15 15 15 15 15 15 15 15 15 15 15 14 14 14 14 14 14 15 15 15
14 14 14 14 14 14 14 14 14 14 14 14 14 13 13 13 13 13 13 14 14 14 14 14 14 14 14 14 14 14 14 14 14 14 14 14 14 14
14 13 14 13 14 14 14 14 14 14 14 13 13 13 13 13 13 12 13 13 13 13 13 13 13 13 13 13 13 13 13 13 13 13 13 13 13 14
13 13 13 13 14 14 14 14 14 14 14 13 13 13 13 12 13 12 12 12 12 12 12 12 12 12 12 12 13 13 13 13 13 13 13 13 13 13
12 13 13 13 13 14 14 14 14 14 14 13 13 13 12 12 12 12 11 11 11 11 11 11 12 12 12 12 12 12 12 12 12 12 12 12 12 12
12 12 13 13 13 13 14 14 14 14 13 13 13 13 12 12 12 11 11 11 10 10 11 11 11 11 11 11 11 11 11 11 11 11 11 11 11 11
11 12 12 13 13 13 13 13 14 14 13 13 13 13 12 12 12 11 11 11 11 10 11 10 10 10 10 10 10 10 10 10 10 10 10 10 9 10
10 11 12 12 13 13 13 13 13 13 13 13 13 13 12 12 12 12 11 11 10 10 11 10 10 10 10 10 9 9 9 9 9 9 8 8 8 8
10 10 11 12 12 13 13 13 13 12 12 12 12 12 12 11 11 11 10 10 9 9 10 10 10 9 9 9 9 8 8 8 8 8 7 7 7 8
10 10 11 11 12 12 12 13 12 12 12 11 11 11 11 11 11 11 11 11 10 9 9 10 10 9 8 8 8 8 8 8 7 7 7 7 7 7
9 10 10 11 11 12 12 12 13 12 12 11 11 11 11 11 11 11 11 11 11 11 10 10 10 10 9 9 8 8 8 8 7 7 7 7 7 7
9 9 10 10 11 11 12 12 12 12 11 11 11 11 11 11 11 11 11 12 12 12 11 11 11 10 10 9 9 8 8 8 8 7 7 7 7 7
8 9 9 10 10 11 11 11 11 11 11 11 11 11 11 11 11 11 11 11 11 11 11 11 11 11 10 10 9 9 8 8 8 8 7 7 7 7
8 8 9 9 10 10 11 11 11 11 11 11 11 11 11 11 11 11 11 11 11 11 11 11 11 11 11 10 10 9 9 8 8 8 8 8 8 7
8 8 8 9 9 10 10 10 11 11 11 11 11 11 11 11 11 11 11 11 11 11 11 11 11 11 11 10 10 9 9 8 8 8 8 8 8 7
8 8 8 8 9 9 10 10 10 11 11 11 11 11 11 11 11 10 11 11 11 11 11 11 11 10 10 10 10 9 9 9 8 8 8 8 8 8
7 8 8 8 9 9 10 10 10 11 11 11 11 11 10 10 10 10 10 11 11 11 11 10 10 10 10 9 9 9 9 9 9 8 8 8 8 8
7 7 8 8 8 9 10 10 11 11 11 11 11 10 10 10 10 10 10 10 10 10 10 10 10 10 10 10 10 9 9 9 9 9 9 9 8 8
7 7 8 8 9 9 10 10 11 11 11 11 11 10 10 10 10 10 10 10 10 10 10 10 10 10 10 10 10 10 9 9 9 9 9 9 9 9
7 7 8 8 9 9 10 10 11 11 11 10 10 10 10 10 10 10 10 10 10 10 10 10 10 10 10 10 10 10 10 9 9 9 9 9 9 9
7 8 8 9 9 10 10 10 11 11 10 10 10 10 10 10 10 10 10 10 10 10 10 10 10 10 10 10 10 10 10 10 10 10 10 9 9 9
Wind_Speed
7 7 5 5 5 5 5 5 4 4 4 4 1 1 2 4 7 8 8 13 16 17 18 18 17 16 15 13 12 12 12 12 12 11 9 4 2 8
6 7 6 5 5 5 5 5 6 5 5 3 2 2 3 5 8 9 11 16 17 18 19 19 19 18 17 16 15 15 15 16 16 17 17 17 16 14
7 7 8 7 5 5 4 4 5 5 6 4 2 3 5 8 8 9 11 10 13 18 19 19 19 18 17 17 16 16 16 17 17 17 18 19 19 19
9 8 8 7 7 6 5 5 5 5 5 5 3 3 5 10 10 10 8 10 11 17 18 19 19 18 18 17 17 17 18 18 18 18 19 19 20 21
9 9 9 8 8 6 6 5 4 4 5 5 4 4 5 10 12 10 11 9 11 15 17 18 18 18 18 18 18 19 19 19 20 20 20 20 21 22
8 10 10 9 9 8 6 6 5 5 5 5 6 7 8 10 11 12 10 8 9 10 12 15 18 19 19 19 19 20 20 21 21 22 22 22 23 23
8 9 10 11 11 9 6 6 5 5 5 6 7 7 9 12 11 8 12 11 8 7 9 8 9 10 12 16 18 19 20 21 22 22 23 23 23 23
8 8 8 10 11 11 10 8 7 7 7 7 6 10 11 12 10 13 14 12 6 5 7 7 5 7 6 10 15 18 19 20 20 21 21 21 22 22
8 7 8 9 10 7 6 4 3 5 7 7 10 11 13 14 14 13 10 7 7 8 8 6 4 6 5 10 14 16 17 17 17 18 18 18 19 19
8 8 9 9 10 10 7 4 3 3 4 6 8 10 13 13 12 12 12 11 10 7 5 5 3 4 4 5 8 12 14 14 14 14 15 15 16 16
8 7 9 11 14 14 9 7 6 5 8 12 13 15 17 17 15 13 13 14 12 6 3 4 4 4 3 2 3 6 8 10 11 12 13 14 14 13
6 6 10 13 16 16 11 10 10 7 9 12 13 14 14 14 14 11 12 14 12 6 4 4 5 4 3 1 1 2 3 3 5 7 10 13 14 10
4 4 5 14 17 17 13 9 12 11 10 11 10 10 9 8 8 7 9 12 12 5 7 6 5 4 4 4 2 2 3 2 1 1 4 8 10 9
4 3 3 11 16 17 12 13 17 14 10 10 9 8 8 7 6 7 8 8 8 9 12 9 6 5 5 4 3 3 2 3 3 2 3 4 6 7
4 3 3 9 12 12 14 19 15 11 11 10 9 6 5 6 6 7 8 8 7 7 13 9 9 6 6 5 5 4 3 2 3 2 2 3 5 5
4 3 5 9 8 8 13 14 9 10 11 10 8 5 5 6 7 8 9 9 7 4 4 7 11 11 5 5 6 5 4 4 3 3 2 2 4 8
6 3 3 4 5 7 8 7 7 9 9 7 9 7 6 7 6 5 6 6 6 5 4 4 5 7 7 7 6 5 4 3 3 3 3 2 1 5
7 5 5 6 6 8 9 7 6 9 9 10 10 9 8 8 6 4 5 7 9 7 6 5 6 6 5 6 3 6 5 4 3 3 3 3 2 3
6 6 6 6 5 6 7 7 6 8 9 10 10 9 9 7 7 6 6 6 6 6 5 4 6 6 7 4 2 1 6 4 4 3 3 4 4 5
5 7 7 7 5 5 7 7 8 9 9 9 9 9 8 7 7 7 6 6 6 5 4 3 4 6 7 7 5 3 6 6 5 4 3 2 2 3
5 5 6 6 5 5 6 8 9 9 10 9 9 9 8 7 7 7 7 8 6 5 5 5 5 6 5 5 4 2 3 8 8 6 5 3 2 2
4 4 4 5 5 6 7 8 9 9 9 8 7 8 8 8 8 8 8 7 6 5 6 4 3 4 3 4 5 5 4 3 7 10 9 10 6 6
3 2 3 5 5 6 8 9 10 9 8 8 8 7 8 7 7 8 9 8 7 6 5 5 3 3 3 4 5 5 5 5 4 4 7 17 21 20
Wind_Direction
231 235 237 243 236 227 217 208 218 257 279 270 256 86 106 102 114 119 123 132 132 128 124 122 120 118 114 109 102 93 86 79 72 64 56 43 275 249
226 230 236 240 239 233 222 211 206 217 245 258 229 142 132 115 104 107 116 120 118 119 118 117 116 114 110 106 100 94 89 83 78 73 69 66 65 65
228 224 230 230 233 236 225 214 210 209 239 244 213 145 131 127 114 110 114 112 114 114 115 114 112 110 107 103 99 95 91 86 82 79 75 72 71 70
223 220 227 228 230 231 225 222 217 210 220 229 196 159 138 139 129 121 113 110 110 111 111 111 109 107 105 102 99 95 91 87 84 82 79 77 76 75
224 216 219 218 228 229 223 224 224 221 216 211 190 159 140 141 131 119 112 107 105 108 105 105 106 106 105 103 100 97 93 91 87 84 81 79 78 78
239 224 216 212 218 219 219 223 223 225 216 204 181 162 150 145 137 133 125 117 111 107 102 104 105 103 104 104 103 101 98 95 91 88 86 84 82 81
263 238 223 212 209 206 207 214 214 219 207 192 176 162 154 154 147 141 134 121 103 111 111 105 103 98 98 102 105 106 103 99 97 94 92 89 86 84
270 252 227 205 202 202 206 208 207 207 198 184 175 165 158 153 143 144 140 135 123 140 117 104 100 99 90 101 113 112 109 107 105 102 98 94 90 86
262 243 220 201 187 182 185 180 190 195 192 180 167 161 156 154 147 145 144 130 126 146 123 104 89 92 89 110 120 120 118 117 115 113 109 104 97 91
257 238 218 192 187 175 166 147 119 105 141 150 149 146 145 145 143 140 131 113 109 121 113 112 104 90 87 92 122 125 126 126 127 129 128 122 112 103
259 246 220 196 187 173 159 147 125 101 93 107 118 124 128 132 136 133 132 135 137 136 114 109 123 101 86 89 118 132 130 129 128 131 139 145 135 115
263 252 221 200 182 171 163 157 145 133 121 114 112 117 126 135 140 141 144 146 144 140 159 118 141 129 113 131 141 144 139 135 127 122 132 149 151 132
249 246 222 200 181 173 166 165 154 139 126 121 118 119 124 136 148 150 153 155 154 149 158 133 147 138 131 146 173 190 190 194 175 156 153 152 163 157
224 232 216 191 180 172 164 154 143 133 127 123 122 126 131 137 147 153 152 151 157 154 158 149 145 155 132 131 164 181 190 204 195 222 213 177 161 168
203 204 168 175 174 171 160 151 146 138 135 132 133 131 127 128 123 118 114 111 93 122 154 157 149 146 140 144 153 155 165 203 192 192 189 174 169 155
190 170 143 155 171 164 157 155 150 147 143 139 133 124 112 112 123 128 128 123 107 78 64 139 153 147 140 137 141 151 158 175 187 185 164 154 177 179
159 144 137 152 161 156 159 155 141 137 132 130 133 128 122 119 119 117 123 120 122 128 104 69 88 112 123 137 140 149 152 171 186 167 130 98 97 186
156 159 161 159 161 161 162 151 141 143 143 141 143 141 140 137 129 117 118 127 131 132 130 130 119 97 64 29 99 145 149 168 175 155 131 124 189 234
161 162 158 154 159 161 161 153 146 148 147 148 150 147 143 138 133 131 127 127 131 133 136 136 131 125 131 143 297 174 152 156 149 152 168 167 193 222
164 161 158 155 154 157 157 150 144 145 146 148 149 148 144 142 142 143 143 142 140 134 131 136 147 148 156 165 176 206 184 156 158 175 194 201 243 286
150 147 146 152 158 161 154 147 146 149 150 149 151 152 150 145 150 156 158 158 144 141 157 181 195 157 118 103 112 199 235 206 185 173 174 169 215 266
137 141 151 167 164 158 151 146 145 148 149 147 153 155 154 154 157 163 167 167 167 162 167 165 130 120 119 146 176 200 224 238 227 220 209 194 178 200
159 172 177 178 166 155 150 147 148 152 153 151 153 155 153 152 155 159 166 167 161 154 144 147 148 143 149 156 170 192 214 219 213 224 249 241 234 237
Height
1463 1463 1462 1462 1461 1461 1461 1461 1461 1459 1458 1458 1459 1460 1461 1463 1464 1466 1469 1471 1473 1476 1478 1481 1484 1487 1489 1491 1493 1494 1494 1495 1495 1496 1497 1498 1499 1500
1459 1458 1458 1458 1457 1456 1456 1456 1456 1456 1455 1454 1455 1457 1458 1460 1461 1463 1465 1468 1471 1473 1476 1479 1482 1484 1486 1488 1489 1490 1491 1492 1492 1493 1493 1494 1495 1496
1454 1454 1454 1453 1453 1452 1452 1452 1451 1451 1450 1450 1451 1453 1454 1456 1458 1460 1463 1466 1468 1472 1474 1477 1480 1482 1485 1486 1488 1489 1490 1490 1491 1492 1492 1492 1493 1494
1448 1448 1448 1448 1448 1448 1447 1447 1447 1446 1446 1445 1447 1449 1451 1453 1456 1459 1461 1464 1467 1471 1474 1477 1479 1482 1484 1486 1487 1489 1490 1490 1491 1492 1492 1493 1493 1493
1441 1442 1442 1443 1443 1442 1442 1442 1441 1441 1440 1440 1442 1445 1448 1451 1454 1457 1460 1463 1467 1470 1473 1476 1479 1482 1484 1486 1487 1489 1490 1491 1492 1492 1493 1493 1494 1494
1434 1435 1436 1437 1437 1437 1436 1436 1435 1435 1434 1435 1437 1440 1444 1447 1451 1455 1459 1463 1466 1470 1473 1477 1479 1482 1485 1487 1488 1489 1491 1492 1493 1493 1494 1494 1495 1495
1426 1427 1429 1430 1431 1431 1431 1430 1430 1429 1428 1429 1432 1436 1440 1444 1447 1452 1456 1461 1466 1470 1473 1477 1480 1483 1486 1488 1490 1491 1493 1494 1494 1495 1496 1496 1497 1497
1419 1420 1422 1424 1425 1426 1425 1425 1424 1423 1423 1425 1427 1431 1435 1439 1444 1449 1453 1458 1464 1471 1474 1478 1482 1485 1488 1490 1492 1493 1494 1495 1496 1497 1498 1498 1499 1499
1412 1413 1415 1418 1420 1420 1420 1420 1419 1418 1419 1421 1423 1427 1431 1435 1441 1447 1452 1457 1460 1468 1474 1478 1483 1486 1489 1492 1493 1495 1496 1497 1497 1498 1499 1499 1500 1500
1405 1406 1408 1411 1414 1415 1416 1416 1415 1415 1415 1417 1420 1424 1430 1435 1440 1446 1452 1459 1464 1470 1476 1478 1484 1488 1491 1493 1495 1496 1497 1497 1498 1499 1500 1500 1501 1501
1399 1399 1402 1405 1408 1410 1412 1413 1413 1413 1414 1417 1420 1425 1430 1436 1442 1447 1453 1458 1464 1471 1477 1479 1484 1488 1492 1494 1496 1498 1498 1499 1500 1500 1501 1502 1502 1503
1393 1393 1396 1399 1403 1406 1408 1410 1411 1412 1414 1418 1422 1428 1433 1439 1444 1449 1453 1458 1463 1471 1477 1480 1484 1488 1493 1496 1497 1499 1500 1501 1501 1502 1503 1504 1504 1504
1388 1387 1389 1393 1398 1402 1406 1409 1410 1412 1416 1419 1424 1430 1436 1441 1447 1452 1457 1461 1465 1470 1476 1480 1484 1487 1490 1494 1497 1499 1501 1501 1502 1503 1504 1504 1505 1505
1382 1382 1384 1387 1393 1399 1403 1408 1410 1413 1417 1421 1426 1432 1437 1443 1448 1453 1458 1463 1468 1471 1476 1480 1483 1486 1489 1492 1495 1498 1500 1501 1502 1503 1504 1504 1505 1505
1378 1378 1380 1383 1389 1396 1401 1406 1410 1413 1417 1422 1427 1433 1439 1444 1449 1454 1459 1464 1469 1473 1477 1480 1483 1486 1489 1491 1494 1496 1499 1500 1501 1502 1503 1504 1505 1505
1375 1375 1377 1379 1385 1392 1399 1405 1409 1413 1417 1423 1428 1434 1440 1445 1449 1454 1458 1463 1468 1472 1476 1480 1483 1486 1488 1491 1493 1495 1497 1499 1500 1501 1502 1503 1504 1504
1371 1373 1374 1377 1381 1388 1396 1403 1408 1413 1419 1424 1429 1434 1439 1445 1449 1453 1458 1462 1466 1470 1474 1478 1482 1485 1488 1490 1492 1494 1496 1498 1499 1501 1501 1502 1503 1503
1368 1370 1372 1375 1379 1386 1394 1401 1407 1413 1419 1424 1429 1434 1439 1444 1448 1453 1457 1461 1465 1469 1472 1476 1480 1483 1487 1491 1493 1493 1495 1497 1498 1499 1500 1501 1501 1502
1365 1368 1370 1375 1380 1387 1394 1401 1407 1413 1419 1424 1429 1434 1438 1443 1447 1452 1456 1460 1464 1468 1471 1475 1478 1481 1484 1488 1491 1494 1495 1496 1497 1498 1499 1499 1500 1500
1364 1366 1370 1375 1381 1387 1395 1401 1407 1413 1419 1424 1429 1433 1438 1442 1447 1451 1455 1459 1463 1466 1470 1474 1477 1481 1484 1487 1490 1492 1494 1495 1496 1497 1498 1498 1499 1499
1363 1367 1371 1376 1383 1389 1396 1403 1408 1414 1419 1424 1429 1433 1438 1442 1447 1451 1455 1459 1463 1466 1469 1473 1477 1481 1484 1486 1488 1490 1492 1494 1495 1496 1497 1497 1497 1496
1365 1369 1374 1379 1385 1391 1398 1404 1409 1414 1419 1424 1429 1434 1438 1443 1447 1451 1455 1459 1462 1466 1469 1473 1476 1479 1482 1484 1486 1488 1491 1492 1493 1494 1494 1495 1494 1493
1369 1373 1377 1382 1388 1393 1399 1405 1410 1415 1420 1425 1429 1434 1438 1443 1447 1452 1455 1459 1462 1465 1469 1472 1474 1477 1480 1482 1484 1486 1488 1490 1490 1491 1491 1491 1490 1490